Miscellaneous Local Product
Issued by NWS North Platte, NE

Home | Current Version | Previous Version | Graphics & Text | Print | Product List | Glossary On
Versions: 1 2 3 4 5 6 7 8 9 10 11 12 13 14 15 16 17 18 19 20 21 22 23 24 25 26 27 28 29 30 31 32 33 34 35 36 37 38 39 40 41 42 43 44 45 46 47 48 49 50
619
AXUS43 KLBF 120410
MISLBF


WESTERN AND NORTH CENTRAL NEBRASKA HOURLY WEATHER ROUNDUP
NATIONAL WEATHER SERVICE NORTH PLATTE NE
1000 PM CST THU FEB 11 2016

NOTE: "FAIR" INDICATES FEW OR NO CLOUDS BELOW 12,000 FEET WITH NO
SIGNIFICANT WEATHER AND/OR OBSTRUCTIONS TO VISIBILITY.

NOTE: STATIONS NOT REPORTING VARIABLES SUCH AS SKY/WEATHER OR
PRESSURE ARE PROVIDED BY THE NEBRASKA DEPARTMENT OF
ROADS...RAWS...AND APRS NETWORKS...AND ARE NOT UNDER
NATIONAL WEATHER SERVICE QUALITY CONTROL.

...OBSERVATIONS IN AND NEAR THE EASTERN PANHANDLE OF NEBRASKA...

CITY           SKY/WX    TMP DP  RH WIND       PRES   REMARKS
PINE RIDGE     CLOUDY    33  27  78 N3        30.20R
CHADRON        CLEAR     30  24  78 CALM      30.21R
ALLIANCE       CLEAR     34  26  72 W10       30.19R WCI  26
SIDNEY         CLOUDY    36  29  75 W12       30.23R WCI  28
CRESCENT LAKE    N/A     38  27  64 NW9         N/A  WCI  31
BIG SPRINGS      N/A     37  30  77 SW3         N/A
$$

...OBSERVATIONS IN NORTH CENTRAL NEBRASKA...

CITY           SKY/WX    TMP DP  RH WIND       PRES   REMARKS
VALENTINE      CLOUDY    30  27  88 NE7       30.19R WCI  23
THEDFORD       CLEAR     35  32  89 NW6       30.19R WCI  30
AINSWORTH      CLOUDY    30  28  92 N8        30.19R WCI  22
O`NEILL        CLOUDY    28  26  96 N9        30.21R FOG     WCI  19
ORD            MOCLDY    33  29  85 N9        30.18R WCI  25
BROKEN BOW     CLEAR     38  31  76 N8        30.17R WCI  32
VALENTINE NWR    N/A     30  28  90 N7          N/A  WCI  23
BUTTE            N/A     23  22  96 CALM        N/A
HALSEY           N/A     38  32  79 NW7         N/A  WCI  33
CHAMBERS         N/A     28  27  94 N3          N/A
EWING            N/A     25  24  93 CALM        N/A
$$

...OBSERVATIONS IN SOUTHWEST NEBRASKA AND FAR NORTHEAST COLORADO...

CITY           SKY/WX    TMP DP  RH WIND       PRES   REMARKS
HOLYOKE        FAIR      45  30  57 NW10G16   30.22R
IMPERIAL       CLOUDY    42  29  59 NW13      30.19R
OGALLALA       CLOUDY    37  28  70 NW6       30.19R WCI  32
NORTH PLATTE   CLOUDY    39  30  70 N8        30.18R WCI  33
MCCOOK         CLOUDY    38  31  76 NW13      30.17R WCI  30
LEXINGTON      CLOUDY    30  27  88 W7        30.18R WCI  24
PAXTON           N/A     38  31  77 CALM        N/A
STAPLETON        N/A     37  31  80 CALM        N/A
GOTHENBURG       N/A     41  32  69 NW3         N/A
CALLAWAY         N/A     38  32  80 N6          N/A  WCI  33
$$

...OBSERVATIONS IN CENTRAL LINCOLN COUNTY AREA...

CITY           SKY/WX    TMP DP  RH WIND       PRES   REMARKS
N.P. AIRPORT   CLOUDY    39  30  70 N8        30.18R WCI  33
N.P. DOWNTOWN    N/A     40  32  73 CALM        N/A
N.P. SOUTHEAST   N/A     41  32  69 N3          N/A
N.P. HILLCREST   N/A     40  32  73 NE13        N/A  WCI  32
$$

...SOME OBSERVATIONS FROM AROUND THE REGION...

CITY           SKY/WX    TMP DP  RH WIND       PRES   REMARKS
DENVER         CLOUDY    38  26  62 S14       30.26R WCI  30
LARAMIE        CLOUDY    31  22  69 CALM      30.28S
CHEYENNE       CLOUDY    39  24  55 NW6       30.26S WCI  35
SCOTTSBLUFF    CLOUDY    34  27  75 NW8       30.22S WCI  27
RAPID CITY     CLOUDY    32  29  88 N6        30.22R WCI  26
BISMARCK       MOCLDY    21  13  71 N7        30.29S WCI  12
PIERRE         CLOUDY    27  24  89 NW7       30.23S WCI  19
WINNER         CLOUDY    28  24  85 N6        30.22R WCI  22
SIOUX FALLS    LGT SNOW  11   7  84 CALM      30.21S
OMAHA          CLOUDY    25  19  78 CALM      30.21S
GRAND ISLAND   CLEAR     27  24  89 W9        30.16R WCI  18
KANSAS CITY    CLOUDY    31  21  66 E8        30.18S WCI  23
WICHITA        CLOUDY    31  24  75 CALM      30.17F
OKLAHOMA CITY  CLEAR     45  32  60 NW6       30.17R
LIBERAL        CLEAR     46  27  46 NE16      30.18R
HAYS           CLEAR     30  21  69 SW7       30.16S WCI  23
GOODLAND       CLEAR     34  27  75 W9        30.22R WCI  27
$$




USA.gov is the U.S. government's official web portal to all federal, state and local government web resources and services.